カタログに戻る

COSMOS 2491 DEB

運用中PO
NORAD 57557·DEBRIS·🇷🇺 Russia

打ち上げ Dec 25, 2013 から Plesetsk Cosmodrome

Loading…

次のパス (今後24時間)

TLE

最新Source: Space-Track

元期: Sep 14, 2026, 07:34 UTC

1 57557U 13076AU  26257.31530345  .00000418  00000-0  27567-2 0  9994
2 57557  82.4752 110.5379 0075071 263.8184  95.4342 12.47284454152294

AllMySatでCOSMOS 2491 DEBをリアルタイム追跡

Download on the App Store